Hourly Data Report for February 03, 2017

All times are specified in Local Standard Time (LST). Add 1 hour to adjust for Daylight Saving Time where and when it is observed.

COLVILLE LAKE
NORTHWEST TERRITORIES

67°01'17.040" N
126°07'23.070" W
271.00 m
2200824
71055
WFX

Download Data

Hourly Data (February 2017)
Hourly Data Report for February 3, 2017
Temp Definition
°C
Dew Point Temp Definition
°C
Rel Hum Definition
%
Wind Dir Definition
10's deg

Wind Spd Definition
km/h
Visibility Definition
km
Stn Press Definition
kPa
Hmdx Definition


Wind Chill Definition


Weather Definition


TIME
00:00 -16.4 -18.2 86 19 9   99.36   -22 LegendNANA
01:00 -16.3 -18.0 87 21 11   99.30   -23 LegendNANA
02:00 -15.6 -17.4 86 19 8   99.26   -21 LegendNANA
03:00 -15.3 -17.0 87 18 8   99.25   -21 LegendNANA
04:00 -15.4 -17.1 87 18 7   99.26   -20 LegendNANA
05:00 -14.8 -16.5 87 20 9   99.27   -21 LegendNANA
06:00 -14.9 -16.6 87 20 4   99.29   -18 LegendNANA
07:00 -16.1 -17.8 87 28 5   99.31   -20 LegendNANA
08:00 -15.2 -16.9 87 36 7   99.37   -20 LegendNANA
09:00 -16.3 -18.0 87 33 6   99.41   -21 LegendNANA
10:00 -15.7 -17.4 87 3 4   99.39   -19 LegendNANA
11:00 -15.2 -16.9 87 34 5   99.43   -19 LegendNANA
12:00 -14.3 -15.8 88 34 9   99.42   -20 LegendNANA
13:00 -13.9 -15.6 87 34 9   99.41   -20 LegendNANA
14:00 -14.0 -15.8 86 34 10   99.41   -20 LegendNANA
15:00 -14.0 -15.6 87 33 6   99.40   -18 LegendNANA
16:00 -13.5 -15.0 88   0   99.36     LegendNANA
17:00 -13.7 -15.2 88 18 3   99.32   -16 LegendNANA
18:00 -13.4 -14.9 88 21 6   99.24   -17 LegendNANA
19:00 -13.1 -14.5 89 23 6   99.17   -17 LegendNANA
20:00 -12.4 -13.9 89 26 7   99.07   -17 LegendNANA
21:00 -12.3 -13.7 89 20 5   99.00   -16 LegendNANA
22:00 -12.1 -13.5 89 21 6   98.95   -16 LegendNANA
23:00 -11.7 -13.0 90 21 6   98.82   -15 LegendNANA

Notes on Data Quality.

Legend

  • E = Estimated
  • M = Missing
  • NA = Not Available
  • ‡ = Partner data that is not subject to review by the National Climate Archives
Date modified: